Location: Newark
(34.1333°N, 7.9667°W)
Time: 10:00:21
(UTC+00:00)

N. Korean satellite - Pass Details

Date: 26 September 2021
Orbit: 450 x 495 km, 97.3° (Epoch: 15 October)

Event Time Altitude Azimuth Distance (km) Brightness Sun altitude
Rises 04:40:38 0° 39° (NE) 2,537 11.0 -21.8°
Reaches altitude 10° 04:44:11 10° 77° (ENE) 1,664 10.5 -21.1°
Maximum altitude 04:45:11 11° 93° (E) 1,606 10.2 -20.9°
Drops below altitude 10° 04:46:12 10° 110° (ESE) 1,667 10.1 -20.7°
Sets 04:49:45 0° 147° (SSE) 2,552 10.5 -20.0°
